Theta_e
317 317 317 316 316 316 316 316 317 318 318 319 319 319 320 321 321 322 322 322 323 323 323 324 325 325 325 326 326 327 324 311 313 310 310 313 319 333 336 339 340 340 334 309 303 302 300 297 300 300 300 301 301 303 305 306 301 296 291 283 285 287 288 290 290 289 290 294 293 295 294 294 294 297 299 298 298 297 297 297 298 300 299 300 301 304 306 307
317 316 316 316 316 315 316 316 317 317 318 318 319 319 320 320 321 321 322 322 322 323 323 324 324 325 325 325 326 326 318 313 314 306 307 321 335 337 338 339 338 338 327 306 303 300 300 299 298 297 297 297 302 302 304 304 299 292 288 284 286 285 291 292 293 292 293 293 293 294 293 295 295 295 298 295 294 296 295 296 296 297 300 302 303 304 305 306
316 315 316 315 316 316 316 316 316 317 317 317 318 319 319 319 320 321 322 322 322 322 323 324 324 325 326 326 325 325 317 313 309 305 307 332 336 338 339 339 335 331 308 307 306 304 302 301 299 300 297 297 296 299 300 301 300 295 287 286 287 288 294 294 294 296 294 294 294 294 295 294 297 297 298 296 292 294 294 294 296 296 298 299 301 303 303 304
316 315 315 315 316 316 316 316 316 316 317 317 318 318 319 319 320 321 321 322 322 323 323 323 324 324 325 325 326 318 315 305 302 304 311 333 335 338 337 336 334 328 312 310 307 307 302 302 299 300 299 294 295 295 296 298 292 294 289 286 292 291 292 297 294 295 294 294 294 294 295 295 296 295 297 292 294 293 292 295 296 296 298 299 300 301 302 302
316 315 315 315 316 316 316 316 317 317 317 317 317 318 318 319 320 321 321 321 322 322 323 323 324 325 325 325 325 314 305 295 300 307 314 333 333 335 336 335 329 309 309 308 306 303 302 301 300 298 297 295 295 292 295 296 295 291 293 291 291 291 294 295 295 295 293 293 293 293 294 294 298 297 294 293 292 290 295 296 295 297 299 300 300 300 301 301
315 316 315 315 315 316 316 316 316 317 317 317 318 318 318 319 320 320 321 321 322 322 323 324 324 324 325 325 314 312 301 289 302 306 330 332 333 334 334 335 330 309 310 303 304 302 302 301 298 296 293 293 293 293 294 296 299 293 293 293 292 293 295 295 295 295 293 295 293 293 295 296 296 295 294 293 293 292 295 296 297 299 300 301 301 301 300 300
315 315 315 316 315 315 316 316 316 316 316 316 317 318 318 319 319 320 320 321 322 322 323 324 324 324 324 322 309 307 302 302 308 312 325 331 330 332 333 328 322 308 303 303 302 303 300 298 297 298 292 291 293 293 297 295 292 290 292 293 297 294 296 295 297 294 292 293 294 294 296 296 294 295 295 294 297 297 297 297 298 298 300 301 300 300 300 300
315 315 315 315 315 315 315 315 315 315 316 316 317 318 318 319 320 320 320 321 321 322 323 323 324 324 323 311 310 300 300 302 309 315 325 328 325 322 316 310 307 307 304 303 303 302 301 298 297 296 292 292 296 295 296 296 293 293 295 295 296 295 296 296 294 293 293 294 294 295 295 295 293 295 294 295 295 297 296 297 298 299 299 299 299 299 300 300
316 315 315 315 314 313 313 314 315 316 316 316 316 317 318 319 319 319 320 321 321 322 323 324 324 323 322 311 305 297 297 308 316 317 317 316 314 306 308 311 306 305 305 302 303 304 303 299 299 299 295 295 296 296 294 295 291 295 296 295 294 295 296 296 295 294 294 297 294 296 293 292 293 295 294 294 296 296 296 296 297 297 297 297 298 298 299 299
317 315 315 315 314 314 314 315 315 316 317 316 316 317 318 319 319 319 320 321 321 322 323 324 323 322 314 309 296 293 301 316 317 319 317 314 308 309 308 309 307 305 307 304 303 301 301 301 301 302 298 297 297 295 295 294 293 295 293 294 296 296 294 295 296 295 294 296 294 295 293 295 293 295 292 295 296 295 296 295 295 296 296 296 297 297 298 299
317 317 315 315 314 315 315 316 316 316 317 317 317 317 317 318 318 319 320 321 321 322 323 323 323 318 309 304 298 294 312 318 318 313 311 310 310 308 309 309 309 306 305 304 304 305 304 302 303 302 301 296 296 294 294 296 295 295 295 294 293 291 292 293 294 294 295 296 293 294 293 293 292 294 292 294 295 296 296 294 294 295 295 296 296 296 296 297
316 317 317 316 316 316 316 316 316 317 317 317 317 317 317 318 318 319 320 321 321 322 323 323 322 317 312 301 297 298 313 313 314 310 310 312 311 310 309 309 307 308 307 306 307 307 305 305 303 300 296 300 293 295 296 296 296 295 295 294 291 291 295 293 294 294 294 295 293 294 294 291 291 291 290 294 296 296 295 294 294 294 294 294 295 295 295 296
316 316 317 317 317 318 318 318 318 317 317 317 317 317 316 317 318 319 320 320 322 323 323 323 319 313 305 300 300 307 309 309 310 311 310 310 308 309 309 309 308 307 307 306 305 307 306 302 299 299 300 295 294 294 296 297 295 296 293 292 291 289 289 292 294 292 294 295 292 295 286 286 289 293 293 295 295 294 294 293 293 294 294 294 294 295 295 295
318 316 316 317 317 318 319 319 319 319 318 318 318 317 317 317 318 319 320 321 322 322 323 323 313 310 304 298 308 310 311 315 311 311 310 311 308 308 309 308 308 307 310 308 307 305 305 303 302 300 302 298 297 301 296 293 293 293 291 290 288 287 285 292 293 292 294 293 293 294 287 288 290 289 291 294 295 295 294 294 293 293 294 293 293 294 295 295
318 318 318 317 317 318 319 319 320 321 319 319 319 318 317 317 318 319 321 322 322 323 323 319 310 307 300 300 309 313 326 313 311 309 310 309 307 307 308 307 306 305 306 306 306 306 304 305 303 299 297 298 299 297 289 288 288 290 288 285 283 286 284 290 293 293 294 293 293 294 286 291 294 292 293 294 294 294 294 293 293 293 293 293 293 294 293 294
319 319 318 318 317 318 319 320 320 321 320 319 319 318 318 317 318 320 322 322 323 323 314 314 313 301 296 295 305 320 310 307 309 308 308 310 307 307 306 304 306 304 303 303 306 305 302 299 297 295 296 296 291 287 286 287 288 285 289 283 284 285 285 290 293 293 293 291 293 293 289 287 290 289 292 293 294 293 293 293 293 293 293 294 294 294 293 293
319 319 318 318 318 318 319 320 320 320 320 319 319 318 317 317 319 321 322 323 318 317 313 309 307 307 296 303 312 306 304 306 310 309 309 310 310 307 305 305 304 303 304 304 303 303 300 300 297 298 293 290 289 288 285 282 283 284 284 287 284 287 286 286 289 292 292 293 290 290 289 290 290 289 292 293 294 293 292 293 293 294 294 294 294 293 293 293
319 319 319 319 318 319 319 320 320 320 319 319 317 317 315 318 321 320 318 318 313 311 311 316 309 299 297 303 298 299 306 307 308 309 309 308 307 305 303 302 302 300 300 299 300 298 299 297 294 291 291 293 291 287 285 283 285 281 286 285 287 286 287 289 288 292 292 292 290 289 288 290 293 290 291 293 293 293 293 294 294 294 294 294 293 293 293 293
319 319 319 319 319 319 319 320 320 320 319 319 319 320 320 320 315 311 310 312 304 297 295 297 296 289 288 297 303 308 309 310 309 308 307 308 309 306 304 303 301 299 296 295 295 297 294 293 293 290 289 289 290 291 290 290 288 287 287 286 284 287 287 287 290 291 293 290 289 288 289 291 292 293 291 292 293 293 294 292 292 293 293 293 293 293 293 292
319 319 319 319 319 319 319 320 321 320 320 314 311 311 306 306 302 303 306 307 303 298 297 300 303 299 302 302 304 307 310 308 306 306 308 308 307 305 303 301 299 296 294 293 294 296 294 289 287 287 291 293 292 293 293 291 290 289 288 287 287 287 288 289 290 290 290 291 289 290 290 291 292 293 293 292 291 292 292 292 292 293 293 293 293 293 293 292
319 319 319 319 319 319 319 319 321 320 319 311 313 307 296 301 291 290 300 303 305 306 303 302 304 299 301 304 304 306 304 303 305 304 306 309 304 303 299 299 294 293 293 292 294 296 296 289 288 292 294 293 293 293 292 292 291 291 290 287 287 287 288 290 292 292 292 291 286 288 289 289 291 292 292 290 291 291 292 292 293 293 293 293 293 293 293 292
319 319 319 319 319 319 320 320 320 320 318 312 312 308 308 303 302 305 303 298 302 306 306 304 303 303 304 304 305 306 302 300 302 304 307 307 302 299 297 295 291 293 292 293 292 291 289 288 291 294 293 292 292 292 291 291 290 289 288 288 286 288 288 291 291 291 291 290 289 288 288 290 292 292 293 291 292 294 294 294 295 294 293 293 293 293 292 291
319 319 319 319 319 320 320 321 320 319 311 310 308 308 308 310 308 307 306 298 298 302 304 303 301 302 302 304 306 306 300 297 298 301 304 305 300 299 297 294 293 291 293 293 291 286 287 288 293 295 293 292 292 291 290 290 290 288 287 286 287 286 288 285 287 289 292 291 286 286 288 291 291 291 292 293 293 294 294 294 294 294 294 294 294 294 292 291
318 318 319 319 319 319 320 320 321 316 310 308 309 309 311 309 311 310 303 295 293 297 303 305 304 302 302 302 305 304 300 299 300 300 306 303 300 297 297 295 293 292 292 293 293 291 290 293 295 294 294 294 292 291 290 289 288 287 289 287 287 288 289 289 288 289 289 289 290 289 289 290 291 292 293 295 293 292 292 292 292 292 293 294 293 292 293 292
318 318 319 319 319 319 320 320 314 311 312 308 307 312 313 313 310 310 300 293 291 294 302 304 305 303 304 306 305 304 300 300 300 304 307 304 298 297 295 297 292 291 292 293 292 290 291 294 293 293 292 293 292 290 290 291 287 287 288 291 291 290 290 288 289 290 284 284 287 289 283 283 283 290 293 295 288 290 291 291 292 293 292 292 293 293 292 292
318 318 318 319 319 319 321 312 310 312 310 307 307 308 312 312 310 310 297 288 286 290 297 294 306 301 309 301 304 301 301 297 300 304 307 305 307 300 298 295 296 292 293 292 292 290 292 294 295 292 292 291 291 291 289 292 289 286 287 290 292 290 289 288 288 288 281 282 288 290 285 284 286 287 291 291 290 292 292 291 293 291 292 292 293 293 292 292
318 318 318 319 319 320 312 305 313 312 305 306 312 312 309 309 312 308 293 283 282 293 292 298 299 298 307 302 303 299 290 291 303 304 304 306 304 306 297 293 295 295 295 295 291 290 293 293 294 292 291 290 289 288 291 293 290 286 287 289 290 289 289 288 288 288 285 284 286 288 285 283 286 290 292 289 289 291 292 292 291 291 292 292 293 293 292 292
318 318 318 319 319 319 312 312 310 308 307 309 310 312 311 309 309 307 289 277 277 298 294 295 301 306 305 302 304 300 295 299 296 300 301 303 304 301 298 293 295 294 295 294 287 292 293 290 291 291 290 289 290 291 292 295 291 288 290 290 288 290 289 288 287 285 284 284 283 285 287 284 284 286 288 290 290 292 293 294 293 292 291 291 292 292 292 292
318 318 318 318 319 320 319 311 310 308 313 310 309 312 314 311 308 294 284 276 294 294 307 298 310 304 299 301 299 295 296 296 294 297 300 303 304 299 295 294 294 294 296 296 292 290 294 293 294 295 292 290 290 290 292 294 291 290 289 289 289 287 286 284 283 287 282 281 282 284 286 282 286 285 287 287 288 291 293 295 296 293 292 291 291 291 291 291
319 318 318 318 317 316 315 316 310 313 313 311 311 313 313 309 300 288 280 274 297 290 298 300 299 296 298 296 295 297 296 295 294 298 299 298 300 301 300 298 295 294 293 295 291 290 294 295 294 294 291 293 291 289 288 291 292 292 290 290 287 285 283 280 281 281 283 281 284 285 287 286 283 284 287 288 289 291 294 293 292 290 291 291 290 290 291 290
318 319 318 318 311 312 314 308 312 313 312 313 314 312 309 300 289 284 278 285 294 295 295 295 294 298 295 294 292 295 294 294 296 297 295 299 297 297 297 296 296 289 287 286 288 286 291 291 293 292 293 291 292 290 289 290 291 293 286 283 285 284 281 278 277 282 281 282 283 286 287 287 282 281 284 291 289 288 290 291 292 289 290 291 290 290 291 290
318 318 319 316 314 316 308 306 314 314 314 315 314 308 302 290 292 282 282 291 285 288 294 290 293 294 295 296 295 295 294 293 295 296 294 293 292 294 294 292 292 287 285 287 286 286 287 288 288 293 293 294 289 290 289 288 290 289 287 289 284 278 276 275 275 277 280 281 282 284 286 283 285 290 287 289 291 292 291 292 292 291 290 291 291 290 290 290
317 317 318 316 315 313 314 316 317 315 315 314 310 305 295 288 281 289 287 288 283 293 291 295 294 295 295 294 292 293 294 292 294 295 295 293 293 293 293 293 293 290 284 285 287 286 286 283 288 290 293 293 294 290 285 286 288 288 288 285 282 277 276 275 274 272 275 279 281 282 284 284 283 288 293 295 298 295 289 288 289 290 291 291 291 290 289 289
317 317 315 315 314 314 316 316 316 316 314 312 305 299 292 285 283 295 290 290 290 292 294 291 294 293 295 293 292 295 290 292 294 293 295 291 291 289 291 292 291 291 286 284 286 285 279 282 288 291 289 292 295 296 294 290 288 291 288 290 287 282 277 277 279 277 278 278 277 279 282 278 281 286 287 290 288 285 285 286 287 288 289 290 290 290 289 288
317 316 316 315 314 314 316 316 316 316 314 309 300 294 285 284 289 288 289 290 291 293 291 294 294 292 290 289 288 294 293 289 293 293 291 290 288 288 289 292 293 292 286 288 285 281 286 286 285 294 290 294 294 294 291 288 288 285 285 288 284 286 284 283 275 275 272 273 273 275 281 281 286 286 287 284 285 286 284 286 287 288 287 288 288 289 289 289
315 314 316 312 311 313 316 317 317 316 311 303 295 288 286 289 286 292 289 296 294 292 291 293 289 288 287 288 288 293 295 290 292 291 289 291 289 290 292 291 293 295 292 290 287 283 283 282 286 291 290 294 295 292 292 293 287 286 288 286 288 287 289 284 277 278 277 276 281 278 281 283 286 291 292 290 286 287 285 286 287 286 286 287 288 288 288 289
311 313 308 311 311 314 316 317 317 314 309 301 293 286 292 293 296 294 297 294 295 296 293 289 288 290 287 287 288 289 292 291 289 289 287 290 290 292 289 293 296 296 298 295 287 290 286 283 287 287 288 290 287 289 289 289 290 287 283 288 288 288 287 285 282 281 280 278 280 280 281 281 280 283 282 284 286 288 287 285 284 284 284 286 287 287 288 288
311 310 310 310 313 315 316 316 315 311 305 297 290 292 296 292 298 296 298 296 295 298 292 290 287 293 286 289 287 288 289 291 289 289 286 290 289 295 293 290 294 296 298 297 293 290 292 285 285 285 286 288 289 292 291 291 290 291 287 289 291 283 283 283 283 280 279 279 280 278 280 282 284 286 284 286 285 288 289 286 283 285 284 286 287 287 287 287
311 308 303 310 316 316 316 316 313 307 300 293 291 290 295 296 299 298 298 299 298 296 292 292 289 291 292 288 288 290 291 288 289 287 286 286 287 292 295 297 293 297 298 298 294 289 289 286 283 286 286 287 288 289 285 286 290 288 289 289 286 284 278 282 285 278 279 277 273 277 276 281 284 285 286 291 290 290 290 285 287 287 287 287 287 287 287 287
307 302 301 313 316 317 316 314 306 303 297 289 291 292 298 295 298 300 300 299 295 296 293 293 293 289 291 291 292 289 290 289 289 289 289 288 291 293 294 298 294 294 297 299 296 297 289 288 280 283 284 287 284 286 287 289 286 285 286 285 287 286 287 286 284 285 281 272 272 275 278 279 281 286 288 292 292 291 291 290 290 289 288 287 287 287 287 287
308 302 301 313 316 317 314 308 299 295 294 296 296 294 297 295 298 298 301 300 298 299 294 294 293 291 292 289 289 293 290 289 288 288 289 287 291 286 293 296 296 294 296 297 295 293 289 286 285 281 283 282 284 285 288 290 292 290 290 288 290 286 285 283 281 282 277 278 277 271 280 281 284 286 287 290 291 290 289 290 291 290 289 288 288 288 288 287
303 293 299 314 316 315 306 296 296 300 296 293 291 295 294 302 296 297 299 300 300 297 298 295 294 294 293 293 293 291 290 289 288 288 288 290 293 290 291 297 297 297 295 290 293 296 293 286 283 280 282 286 286 288 287 287 290 288 289 287 292 291 289 284 281 278 278 282 277 274 273 285 287 287 285 286 286 287 288 287 289 289 288 288 288 288 288 288
299 296 306 312 315 312 303 295 297 296 294 294 298 297 298 298 298 298 298 299 298 298 296 296 296 294 293 294 292 292 293 287 290 289 290 291 291 295 292 296 297 297 297 290 292 289 294 289 287 284 285 284 286 287 287 287 289 288 288 285 288 289 290 289 286 282 285 280 281 277 277 284 286 285 284 284 283 284 285 286 289 288 287 288 288 287 287 287
299 298 300 306 314 311 299 290 290 293 294 296 295 294 299 298 297 296 297 299 297 296 295 294 295 298 295 293 292 292 294 288 291 292 290 289 290 290 292 295 298 295 295 293 293 295 290 287 289 284 281 283 284 287 288 288 289 286 287 290 290 290 290 287 285 285 282 284 285 283 280 284 286 284 281 283 283 284 285 285 286 288 287 288 288 287 287 287
296 298 298 300 305 305 296 298 293 291 292 293 292 291 293 295 298 299 298 297 300 297 296 295 298 295 296 294 294 294 295 295 290 293 293 288 292 289 289 292 297 296 295 295 298 300 293 288 288 284 282 279 279 279 281 284 286 287 284 286 289 290 288 287 286 285 283 286 286 285 285 288 287 286 286 285 284 286 285 285 285 287 288 288 288 288 288 288
292 285 293 295 298 297 296 298 298 294 291 291 290 292 294 292 296 298 299 297 300 299 299 297 296 298 295 293 291 292 293 296 294 288 291 288 288 287 287 286 290 295 294 295 296 297 288 287 291 290 288 286 287 286 287 289 286 285 286 287 289 289 290 290 289 285 284 285 285 288 288 289 290 288 285 285 283 285 288 287 286 287 286 287 287 288 288 288
295 288 288 284 295 295 294 297 294 296 289 293 286 291 289 292 294 295 300 294 299 298 298 298 295 295 292 295 293 293 293 292 288 289 290 291 285 286 288 287 288 289 294 294 296 292 286 288 290 290 290 291 284 284 286 291 288 289 287 286 288 288 289 288 287 286 288 285 283 289 288 288 290 292 293 288 284 284 286 286 287 287 286 287 287 286 289 287
288 291 294 294 289 286 289 289 292 290 294 294 288 293 290 290 292 289 296 298 299 300 295 294 296 298 297 295 295 289 290 290 289 289 289 287 286 287 287 289 287 289 292 292 294 292 289 288 290 289 289 291 284 286 286 288 289 288 289 288 287 288 288 287 287 290 289 287 285 289 290 288 291 293 294 292 290 290 290 290 288 287 287 287 286 286 286 286
294 292 292 299 288 290 291 293 294 291 289 293 290 291 288 290 290 293 293 294 296 295 298 290 293 296 297 298 295 291 291 288 287 291 289 286 287 286 286 287 287 289 290 290 290 286 290 289 288 289 289 289 286 285 286 288 286 285 286 287 288 288 288 289 289 291 290 289 291 291 289 290 294 291 292 293 292 290 288 288 287 287 287 287 286 286 286 286
291 291 288 294 293 290 291 291 289 288 285 291 287 288 289 289 289 293 294 294 289 293 299 294 294 296 297 297 296 293 293 295 294 289 289 289 286 288 289 290 286 286 288 289 290 289 291 289 290 286 287 288 287 286 286 287 286 286 286 286 287 288 288 289 290 290 290 290 291 291 290 290 292 290 292 288 287 288 287 287 288 287 287 287 287 287 287 287
295 293 295 291 287 289 290 289 288 287 286 287 286 288 288 289 289 294 293 298 295 292 296 294 297 295 295 296 296 296 299 297 296 294 294 293 290 292 291 288 290 286 287 287 288 288 290 286 285 287 286 286 286 287 286 286 285 285 287 287 285 285 285 287 286 290 288 288 289 288 287 288 292 287 286 285 286 287 287 287 287 287 288 288 287 287 288 288
295 295 295 294 288 292 288 289 288 287 284 288 288 288 288 288 292 294 289 295 297 298 298 298 298 297 291 293 294 297 300 299 296 295 297 298 297 293 292 290 291 289 287 289 287 288 288 287 285 286 284 285 286 287 286 285 285 284 285 287 287 287 289 289 290 291 290 291 288 286 287 293 290 287 287 285 285 286 286 287 286 285 287 288 288 288 289 289
Wind_Speed
3 3 2 2 1 2 2 2 2 3 3 4 4 5 6 7 7 8 8 9 10 11 12 12 13 13 13 14 14 14 14 1 2 0 0 2 1 2 4 5 6 6 2 2 5 6 3 5 4 9 4 2 1 1 2 2 1 2 2 5 3 2 2 2 3 8 1 7 4 3 2 4 1 0 0 2 9 5 3 5 2 5 5 2 1 2 3 3
4 3 1 1 1 1 1 1 2 3 3 4 4 5 6 6 7 7 8 9 10 11 12 12 13 13 14 14 13 14 8 2 0 1 1 1 2 3 4 5 4 3 1 2 4 3 3 4 4 4 4 1 1 0 1 1 2 3 2 4 3 3 1 2 2 4 4 4 5 3 1 5 4 4 1 2 0 2 3 3 2 4 3 5 5 4 6 6
4 3 2 1 0 0 1 1 1 2 3 3 4 5 6 6 7 8 8 9 10 11 12 13 13 14 14 13 13 11 5 1 0 1 2 3 4 4 4 3 2 2 1 0 0 1 0 1 3 1 3 0 4 0 3 2 1 0 3 3 1 6 0 0 2 2 3 6 5 3 0 4 2 1 0 2 5 0 6 5 0 1 4 3 1 4 4 7
4 3 3 2 2 1 1 1 0 1 2 3 4 5 5 6 7 8 9 9 10 11 12 12 13 13 14 13 11 6 0 1 0 2 1 4 3 4 4 2 0 2 2 1 2 0 1 0 1 1 1 3 3 2 2 2 3 1 4 2 3 4 3 1 1 1 3 5 5 4 0 2 1 3 1 5 5 3 4 6 8 11 9 7 4 4 5 5
4 4 3 3 3 2 1 2 2 2 2 3 4 5 5 6 7 7 8 9 10 10 11 12 13 13 14 13 12 1 2 3 1 1 1 2 2 4 4 3 2 0 0 1 1 1 2 3 0 3 2 0 2 2 1 2 1 3 1 2 3 2 1 3 2 3 4 1 5 2 5 4 1 1 2 7 4 6 7 6 6 5 9 9 7 4 4 5
5 4 4 4 3 3 3 1 3 3 3 3 4 5 5 6 6 7 8 9 10 10 11 12 13 14 14 14 0 1 1 1 1 0 1 2 2 4 5 3 0 0 0 3 2 1 6 4 3 1 2 2 1 2 1 0 1 1 1 0 2 2 2 2 1 3 5 2 4 2 2 2 3 1 2 5 5 2 3 2 6 8 7 7 6 6 6 5
5 5 4 4 4 3 3 2 3 4 4 4 4 4 5 6 6 7 8 9 10 11 11 12 13 13 15 4 1 2 1 2 1 3 2 3 3 4 4 3 2 3 2 3 5 3 2 3 3 0 2 2 0 2 0 2 4 6 2 0 1 1 4 5 3 3 2 9 4 2 1 2 2 2 0 3 1 1 1 5 6 6 7 7 7 5 7 5
6 5 5 4 4 3 3 3 3 3 4 4 4 4 5 5 6 7 8 9 10 10 11 11 12 12 12 2 0 1 2 2 2 2 3 3 5 5 5 2 2 1 4 2 1 2 1 4 2 1 4 3 1 1 1 2 4 2 0 1 1 0 1 1 3 3 2 3 1 4 2 3 5 2 1 3 3 2 3 5 7 7 7 6 7 6 6 6
7 6 6 4 4 4 4 4 4 4 4 4 4 5 5 5 6 7 8 9 10 10 10 11 11 12 4 2 2 1 2 1 4 1 3 3 5 7 6 0 4 3 0 3 2 2 2 1 1 2 1 0 0 2 1 1 2 1 1 0 1 0 0 0 1 2 4 1 3 0 4 4 5 1 3 4 6 4 3 5 6 7 7 6 6 6 7 6
8 7 6 5 4 5 5 3 3 5 4 4 4 5 6 6 6 7 8 8 9 9 10 11 12 11 2 2 2 1 1 1 3 1 2 3 5 5 7 1 2 3 0 3 2 4 2 1 1 1 4 2 1 1 0 2 1 2 2 1 1 1 1 1 5 5 3 1 2 4 2 2 3 3 7 0 5 4 5 5 3 7 6 5 5 5 5 7
9 8 8 7 7 7 5 4 4 4 4 5 6 5 7 6 7 8 8 8 8 8 9 10 10 8 2 1 3 4 1 2 0 0 3 4 4 4 0 4 2 2 3 2 2 1 2 2 2 1 1 1 1 1 1 0 2 2 1 0 1 5 3 3 2 5 1 3 3 5 4 1 2 1 7 5 6 6 9 6 5 5 5 5 5 4 4 5
10 9 9 9 10 9 8 5 4 4 4 5 7 7 7 7 7 8 8 9 8 8 9 8 8 2 1 2 2 2 2 2 2 0 1 2 2 4 4 1 2 2 1 1 0 0 1 1 3 1 1 0 1 0 0 0 1 0 1 2 5 6 5 2 7 5 5 3 4 4 1 4 1 7 4 5 8 6 8 7 5 5 5 5 4 4 4 5
10 9 10 9 9 10 10 9 7 6 5 5 7 7 8 8 8 8 9 8 8 8 7 7 4 2 1 1 6 5 2 3 1 3 3 3 3 1 1 1 2 2 2 2 1 1 1 2 3 4 0 3 2 0 1 2 0 1 3 0 4 4 5 6 0 2 7 2 5 4 3 8 8 9 1 5 9 6 6 6 6 5 5 5 5 4 4 3
9 10 10 9 8 8 10 9 8 8 6 6 6 8 8 8 9 9 8 8 9 7 6 7 3 1 1 3 2 3 3 1 2 4 1 0 4 1 2 3 3 2 1 3 0 1 1 1 4 4 1 2 0 0 2 2 3 1 1 2 1 3 4 2 0 4 7 1 7 3 3 8 8 5 3 6 9 13 10 8 7 6 6 5 5 5 5 5
10 10 8 9 8 6 5 8 9 9 6 6 7 9 8 8 9 9 9 9 7 6 6 4 2 2 1 5 2 5 4 1 2 2 3 3 4 2 0 2 3 4 0 3 0 0 2 3 3 1 0 1 2 1 2 2 3 1 2 4 3 3 6 8 2 8 8 0 1 4 3 11 11 6 6 7 6 7 10 8 8 7 7 7 5 6 5 4
9 10 10 8 9 7 7 6 8 9 7 7 7 9 7 7 7 10 10 7 7 4 1 2 3 3 2 3 1 3 1 2 3 4 1 2 2 2 2 2 1 3 2 2 1 1 4 5 3 2 1 3 5 6 4 1 2 4 2 4 2 1 5 8 0 2 3 4 1 7 8 3 6 4 6 6 8 8 8 8 8 9 9 8 7 6 5 5
11 10 10 9 9 9 7 7 6 6 7 5 7 8 7 8 10 10 12 10 2 1 1 1 0 0 1 2 1 1 3 4 2 1 1 0 2 4 4 2 1 1 3 2 5 3 4 3 2 2 3 3 3 5 2 3 4 3 1 4 4 3 2 2 5 0 1 6 5 4 2 8 3 2 4 5 7 7 8 10 10 10 8 8 7 7 7 7
12 10 10 9 9 8 7 6 6 9 7 5 6 5 5 7 10 9 3 1 1 2 1 1 2 1 7 2 2 5 1 3 2 2 2 1 4 4 3 1 1 3 2 2 3 2 2 1 4 4 1 1 2 2 4 7 7 4 2 1 6 2 4 6 1 1 5 2 5 4 6 12 12 3 5 8 7 9 11 12 11 10 8 7 7 7 7 7
13 12 10 10 9 8 6 6 7 8 6 5 7 8 10 10 3 0 2 1 2 2 0 3 4 5 3 6 1 4 2 3 3 4 3 2 1 2 3 3 4 5 1 2 2 2 2 4 5 3 4 2 6 9 10 9 5 4 7 5 3 2 3 3 6 3 9 5 5 6 10 13 13 13 6 7 8 11 12 5 4 7 6 7 8 7 8 7
13 13 12 11 10 8 7 6 8 8 4 2 3 3 1 1 1 1 1 1 4 6 2 4 6 1 1 2 4 1 0 4 5 2 0 1 3 1 2 2 3 5 4 4 0 1 2 4 5 7 9 11 8 10 10 5 6 2 3 2 4 4 6 4 3 5 3 1 8 10 11 11 12 12 10 9 5 7 8 9 9 8 9 10 9 10 9 8
13 12 12 12 10 8 7 7 7 7 4 1 1 1 3 6 6 5 3 6 5 5 1 2 10 3 1 2 2 7 6 1 2 1 3 1 3 6 2 2 2 1 2 3 6 1 3 6 8 10 12 9 10 8 5 1 1 2 1 2 6 2 8 5 3 2 1 5 4 6 7 11 13 11 9 2 6 12 14 14 12 11 11 11 12 11 10 7
14 13 12 11 10 8 8 8 7 5 4 1 1 4 2 2 0 1 2 3 5 14 10 4 3 4 1 3 3 2 5 3 0 1 1 2 4 7 2 3 3 7 1 3 3 2 3 10 11 15 4 3 3 5 5 6 5 2 4 3 3 8 4 8 5 3 1 3 9 6 7 11 12 11 9 6 11 11 15 17 18 16 14 12 12 10 9 8
15 14 13 12 11 8 9 9 8 8 3 2 4 4 4 3 3 1 0 1 4 2 9 7 5 7 5 3 2 1 3 4 7 4 5 3 3 4 6 4 4 3 2 4 8 4 4 6 15 8 4 4 3 3 4 2 1 4 2 1 8 3 0 6 3 1 1 4 2 1 7 10 6 6 10 10 11 9 9 11 12 10 14 16 16 16 15 13
16 15 14 13 11 9 8 9 9 6 3 4 5 7 2 1 5 6 1 2 3 4 5 8 12 5 8 6 5 7 6 4 4 8 3 6 10 4 4 7 6 4 8 10 10 12 11 2 2 7 8 9 6 4 4 5 7 4 6 5 4 6 7 8 5 2 2 3 1 6 10 12 8 12 9 11 9 6 5 6 9 10 8 6 3 4 9 16
17 16 15 13 12 11 8 8 5 3 4 3 7 10 9 7 3 5 1 4 2 5 1 1 4 3 5 3 3 8 3 1 5 4 8 10 6 3 4 2 4 7 7 9 5 5 9 6 3 8 5 6 5 4 7 7 7 4 6 10 11 7 7 5 2 2 4 4 1 1 6 6 4 11 14 10 2 5 6 7 12 13 7 8 11 13 9 8
18 17 16 15 14 13 10 5 4 7 6 7 4 2 8 6 2 2 2 2 6 3 2 6 5 6 6 3 5 4 3 6 3 3 10 8 3 5 2 3 4 9 7 4 7 4 6 3 4 7 6 5 6 6 4 8 8 2 7 10 11 7 6 2 1 2 4 5 3 1 6 13 1 4 7 7 4 11 7 8 13 7 10 12 14 12 13 13
18 18 17 17 16 14 9 6 6 10 7 9 9 7 1 3 2 1 1 4 7 5 8 2 3 2 1 6 9 5 3 6 1 4 5 1 8 0 5 5 1 1 3 3 1 7 3 6 6 3 5 7 5 6 5 10 6 5 3 5 5 4 4 5 4 5 7 1 4 1 2 6 18 8 7 5 5 9 12 11 11 10 11 13 11 11 12 13
20 19 19 18 18 18 2 5 9 10 10 2 2 8 4 3 4 1 3 0 6 4 2 2 2 2 1 5 13 11 2 5 4 4 1 2 1 1 2 7 11 10 4 5 11 1 6 5 6 6 5 5 9 6 4 8 6 3 0 6 4 6 5 2 2 4 1 3 9 2 1 3 11 4 2 5 7 13 15 15 14 12 10 10 10 10 11 12
21 21 20 19 18 19 8 3 7 9 9 1 3 6 5 3 2 3 4 4 1 2 3 4 5 2 3 5 4 2 2 4 2 1 1 2 3 2 4 4 3 4 4 9 11 1 1 6 10 12 9 9 6 3 5 10 5 2 5 7 6 6 6 3 2 2 2 1 9 7 6 5 20 3 4 0 4 12 11 14 15 9 12 11 9 6 7 7
21 21 21 20 14 11 11 6 5 5 6 1 4 5 7 5 2 2 2 7 1 4 2 1 3 7 6 14 5 1 3 1 2 1 2 3 1 2 1 2 4 3 5 2 1 5 1 3 3 3 6 5 5 1 3 5 3 5 4 7 6 8 4 3 5 3 3 7 10 10 9 6 12 1 8 8 8 10 11 7 5 2 7 8 7 10 11 11
22 22 22 22 13 10 6 11 12 4 4 4 7 7 6 2 4 5 8 6 4 1 2 2 3 4 12 14 7 2 4 1 1 5 3 1 0 2 0 3 3 4 1 3 4 4 1 2 1 1 4 4 4 4 4 0 2 6 2 4 4 3 6 4 3 2 1 12 3 10 10 11 11 4 5 8 2 3 5 6 7 4 8 10 9 9 10 11
22 23 24 19 10 9 15 15 10 6 5 8 9 9 8 7 3 9 8 5 2 6 11 5 0 6 12 7 9 13 11 1 4 6 10 8 8 10 10 11 8 4 5 8 8 2 4 4 2 2 3 9 3 6 2 4 1 5 6 7 5 3 4 2 3 2 8 10 1 3 7 2 19 12 5 7 9 10 6 7 7 5 6 9 9 11 10 9
24 23 25 17 13 10 13 3 11 7 7 8 7 3 8 8 13 12 10 7 5 4 4 3 8 10 11 8 7 4 3 9 3 5 5 0 6 8 2 4 4 5 6 3 7 1 7 1 1 3 2 5 9 10 3 1 3 6 8 7 6 1 2 4 4 2 6 5 4 2 1 9 2 8 13 19 21 11 5 6 6 6 7 10 11 10 10 10
25 23 17 15 14 12 8 6 9 11 11 10 10 5 7 7 13 15 20 14 4 2 5 3 5 4 14 13 7 10 5 3 8 5 7 6 7 8 7 6 5 4 5 2 8 8 4 4 8 8 6 5 10 12 15 8 10 11 4 12 10 8 5 5 6 7 7 6 3 3 4 8 5 6 1 7 6 5 4 5 7 7 7 6 7 9 9 9
23 19 16 12 12 11 11 8 11 13 11 10 11 13 17 14 9 16 16 12 0 1 2 2 10 8 5 2 1 5 4 4 5 5 6 8 10 7 10 12 11 5 2 4 4 3 11 7 6 9 1 8 13 3 6 6 3 1 2 5 5 10 7 7 5 2 1 2 3 2 7 4 7 2 4 3 5 5 3 3 2 2 2 7 9 12 13 13
19 14 16 10 14 14 14 11 14 15 14 13 13 14 19 13 15 13 6 5 1 5 4 6 3 5 6 6 2 9 2 3 4 4 3 7 1 8 7 4 12 15 10 11 5 4 2 5 1 2 4 11 9 5 3 6 8 5 6 9 9 2 5 2 2 0 1 2 12 5 9 7 8 11 10 8 5 7 4 3 1 2 3 6 9 11 12 12
14 12 14 14 17 16 16 14 15 15 13 15 15 16 14 12 17 5 4 11 8 13 7 10 7 9 8 8 6 6 5 5 4 6 6 3 5 8 4 8 8 13 15 7 2 3 9 5 1 3 4 1 1 0 3 4 5 7 4 9 3 2 4 4 5 2 1 6 7 6 10 6 2 11 3 3 3 10 8 6 4 2 4 7 8 10 12 14
15 13 19 20 17 18 17 16 16 15 13 13 19 15 11 19 13 12 2 6 6 10 7 11 3 10 5 10 9 7 4 8 8 5 5 7 6 7 11 3 7 15 18 4 3 2 3 5 1 1 1 3 3 3 3 2 2 7 7 4 8 4 3 2 3 7 3 7 7 5 5 10 10 11 2 2 4 9 11 7 3 6 7 10 7 7 5 6
7 6 8 18 14 18 18 17 16 17 13 13 14 16 12 19 18 17 5 8 6 8 12 9 9 7 8 9 5 7 12 11 9 8 6 5 6 6 15 11 7 15 14 9 4 2 1 5 2 1 2 1 0 3 9 5 1 2 2 4 1 3 1 6 8 2 4 5 1 8 4 10 7 7 8 12 10 9 9 5 12 13 12 9 9 9 11 12
8 3 9 8 18 20 18 18 14 15 14 21 17 17 15 18 12 9 9 13 7 12 10 12 12 5 8 10 13 10 9 8 14 12 8 4 9 1 9 9 6 7 14 14 9 3 3 2 4 1 3 2 3 4 10 14 11 2 3 5 1 1 2 3 1 5 5 4 5 5 10 3 6 5 6 10 9 11 11 12 12 10 10 9 8 11 11 12
4 4 2 8 21 19 17 14 13 18 18 9 12 15 10 9 8 11 12 5 3 3 5 12 12 14 9 6 6 7 8 9 7 8 9 5 10 5 7 9 8 9 6 7 7 3 2 3 8 2 0 5 7 4 4 5 8 12 15 14 15 10 6 5 9 2 2 3 6 3 15 3 4 2 4 7 8 6 7 7 10 5 6 9 9 9 11 11
7 5 2 8 21 25 22 19 10 11 11 16 17 16 10 4 2 7 11 4 4 3 0 1 5 11 8 11 12 9 8 9 10 8 7 12 10 5 4 13 11 15 15 11 16 8 6 3 7 5 7 10 5 0 2 3 1 2 4 5 9 10 6 5 9 6 0 5 3 1 3 13 4 4 4 5 4 6 5 4 10 4 5 7 7 7 8 9
6 11 1 9 12 23 21 19 15 15 13 12 8 9 2 4 8 4 10 7 9 5 2 7 9 10 7 8 6 9 13 6 14 12 7 10 7 13 3 13 10 13 11 2 7 1 5 3 3 1 0 2 3 2 1 0 2 1 1 2 5 14 15 11 5 5 8 2 3 1 7 6 2 2 4 4 5 7 7 5 8 5 4 6 8 8 9 9
4 8 2 2 14 18 13 17 18 14 11 13 16 14 11 5 8 5 12 15 12 4 6 3 2 4 5 4 4 12 12 6 7 13 8 5 6 1 7 9 15 11 13 11 11 9 5 4 7 3 1 1 2 3 2 1 1 3 6 10 11 3 3 2 4 2 1 9 10 9 17 7 3 1 2 2 2 2 4 4 4 7 4 7 9 8 7 6
2 1 0 1 2 9 14 12 14 14 14 15 13 19 16 10 8 15 11 10 7 5 4 6 5 3 4 2 7 6 13 19 5 12 7 5 6 1 5 4 10 11 6 7 8 13 8 7 10 8 12 12 9 12 14 11 12 4 1 4 7 14 12 5 7 6 9 7 14 10 17 4 1 2 2 2 2 3 3 2 2 5 6 8 8 10 10 10
3 3 2 4 3 3 5 4 3 10 12 14 12 15 18 16 8 10 11 11 10 7 7 2 2 3 3 3 5 9 13 14 13 5 12 4 2 1 3 3 3 6 3 3 8 12 4 3 12 15 16 16 15 2 2 8 6 8 11 14 15 13 13 11 6 5 15 4 11 18 18 13 11 3 3 3 3 4 7 3 4 5 4 4 6 8 9 9
3 6 5 4 3 8 9 8 3 4 10 9 10 8 18 20 12 6 11 6 12 13 8 8 2 6 4 5 11 12 10 11 1 5 11 13 1 2 1 4 1 2 5 5 11 6 3 4 15 16 15 17 3 3 7 16 15 16 14 14 14 15 15 15 13 17 7 5 16 12 5 14 20 10 12 6 5 7 7 6 6 5 4 5 5 4 5 5
6 3 6 4 3 6 13 15 12 6 9 15 6 3 14 18 16 9 7 14 6 11 9 3 8 14 15 18 10 7 6 7 6 9 3 1 5 0 2 1 2 3 2 3 5 6 8 10 9 9 15 12 6 5 7 6 9 10 15 15 15 15 13 18 21 17 11 13 20 6 12 14 21 15 13 8 9 11 13 11 5 4 4 4 6 8 9 9
1 1 2 5 3 3 8 2 7 10 8 10 7 12 11 16 19 16 9 11 10 6 16 11 19 23 19 14 12 8 9 8 10 11 8 6 8 5 2 2 3 1 0 3 4 2 4 9 6 11 17 12 4 5 4 9 5 2 7 13 15 17 19 21 21 20 16 15 17 13 12 20 19 4 6 9 10 6 1 3 5 5 6 7 7 8 9 9
5 3 2 0 2 3 6 4 2 1 5 4 8 9 8 14 20 16 7 9 11 15 16 23 22 20 18 15 16 14 15 20 18 14 6 11 4 5 11 10 6 3 2 7 5 3 7 7 9 4 8 13 9 5 6 6 6 7 10 11 14 14 17 20 19 14 11 14 23 18 13 25 5 6 8 1 4 5 4 4 6 6 7 8 9 9 9 9
2 2 1 5 7 5 6 7 5 7 4 5 5 5 5 7 17 17 16 13 18 14 14 24 28 17 13 16 15 20 21 20 15 12 15 19 19 17 13 6 11 12 7 5 2 1 5 2 2 6 9 12 6 12 10 5 4 9 16 17 10 11 10 11 11 15 16 22 19 12 18 21 9 1 3 3 5 7 9 7 6 6 8 9 10 10 10 10
2 1 1 2 7 8 9 6 6 6 9 7 8 7 6 11 7 5 8 7 8 10 11 18 18 14 9 16 21 26 25 10 5 4 9 11 1 6 3 5 10 13 10 10 1 7 8 7 7 8 10 13 6 12 9 6 1 6 26 22 16 14 16 13 16 15 17 17 12 16 19 21 6 7 5 2 5 6 6 7 4 4 7 10 11 11 10 10
Wind_Direction
178 164 144 142 119 67 50 35 18 15 14 20 19 12 8 8 10 7 4 1 356 355 350 347 345 340 340 340 340 338 342 49 14 36 50 228 186 286 290 289 296 311 352 22 16 41 344 7 8 341 12 44 296 51 289 40 57 59 61 120 52 167 107 198 172 189 220 139 218 193 189 113 173 353 204 52 33 86 61 66 342 26 40 68 49 70 69 39
188 185 167 158 131 132 71 29 16 8 10 9 15 9 12 9 4 4 2 358 356 353 348 346 341 340 339 338 339 337 352 25 57 50 236 98 243 293 300 297 309 311 313 34 59 60 50 343 328 20 35 33 310 86 32 313 75 91 111 83 168 196 251 154 204 204 137 192 172 192 212 146 210 139 227 98 210 120 58 10 30 56 49 55 42 42 53 60
197 201 201 228 256 168 183 74 13 6 2 1 9 4 7 5 360 360 358 358 353 352 347 341 340 338 337 334 329 339 355 1 38 358 286 18 329 321 309 288 287 52 75 93 181 134 138 244 266 15 8 70 1 282 35 306 61 181 109 79 241 210 265 279 167 193 239 147 137 135 220 153 195 138 232 178 175 356 162 155 328 187 170 141 77 59 63 68
211 219 224 235 243 248 288 281 277 1 355 358 355 359 357 355 355 359 355 354 351 349 344 341 337 336 333 326 322 329 81 57 357 252 282 321 329 329 310 295 57 106 98 139 169 157 218 110 66 91 27 66 301 51 55 313 73 282 68 156 194 192 100 241 151 173 120 131 153 140 62 109 255 204 121 154 108 245 259 220 166 195 178 164 147 107 86 78
224 224 232 227 229 257 271 292 306 342 351 353 352 347 353 346 351 353 351 347 347 344 342 338 338 333 328 323 320 340 46 64 234 232 280 315 13 320 303 283 129 102 135 243 133 71 75 62 73 39 83 293 358 15 62 330 119 79 63 214 167 107 98 234 226 200 126 170 105 112 127 212 39 39 129 150 183 221 210 221 202 164 156 153 146 136 95 92
233 229 228 230 231 242 263 304 307 317 331 335 348 345 339 342 345 344 343 343 342 341 339 339 335 333 329 323 355 97 91 68 227 271 287 318 358 325 301 313 295 57 285 33 67 6 49 347 64 23 3 65 326 103 291 229 353 87 316 320 220 215 138 222 212 218 139 110 129 146 222 90 141 223 205 168 195 240 249 164 147 143 146 142 126 122 107 108
230 238 231 228 239 247 261 278 326 319 320 317 329 336 333 335 335 336 338 339 338 338 340 338 336 334 332 349 190 92 136 276 24 248 352 6 333 323 313 343 11 24 59 52 21 60 25 55 71 119 89 57 302 109 30 356 15 103 177 299 12 144 159 169 197 141 143 125 200 205 75 167 155 200 164 192 289 251 104 107 113 115 119 127 118 127 135 134
223 229 238 235 242 255 272 298 298 304 311 308 305 312 321 322 328 331 333 333 336 336 337 338 337 336 350 41 19 341 27 253 258 267 275 10 341 320 344 12 49 53 54 74 45 39 67 47 77 127 62 129 224 127 304 59 18 87 66 199 281 32 265 218 179 158 157 185 119 98 134 229 176 185 83 242 195 176 140 101 102 113 111 105 118 128 129 127
217 222 235 235 244 250 263 269 286 294 283 297 296 300 307 317 321 326 326 331 333 333 336 341 339 340 316 89 123 44 270 240 210 314 120 37 340 5 9 283 12 66 122 61 16 136 107 273 70 196 226 124 217 98 345 93 326 147 186 190 341 307 311 315 279 214 196 177 156 105 245 273 243 300 236 203 190 188 134 96 119 116 114 124 131 136 138 139
214 216 222 225 240 252 246 231 253 265 281 287 302 297 297 308 318 321 322 327 330 336 339 344 350 332 47 78 45 87 256 285 302 233 119 77 23 23 39 46 39 53 52 334 38 55 82 212 144 183 125 80 106 80 259 87 227 147 151 180 178 266 353 240 194 233 236 242 179 187 244 249 330 155 273 111 186 161 120 123 126 124 131 136 135 133 135 141
223 219 218 214 234 226 236 243 262 286 299 306 303 299 295 301 306 314 319 323 332 337 344 347 357 10 59 66 123 221 235 64 315 116 92 86 65 70 359 349 74 70 91 28 92 283 151 155 194 114 44 223 90 330 65 221 124 67 151 260 314 326 251 230 259 255 100 278 176 170 234 305 323 91 230 188 186 167 146 151 152 138 144 146 144 137 143 132
224 226 222 220 224 227 235 240 247 278 296 304 305 302 297 292 299 308 317 324 328 341 345 348 19 44 83 71 155 210 334 267 316 72 72 105 107 160 199 130 100 147 143 166 307 276 198 189 133 59 203 193 50 9 51 152 95 202 90 347 301 346 339 238 199 217 156 247 148 145 348 290 190 226 256 186 152 164 153 163 171 159 160 153 148 141 143 153
229 229 231 232 231 218 229 242 247 269 295 303 302 297 294 291 294 305 316 322 329 335 343 360 22 74 84 344 239 243 290 295 261 94 52 76 97 33 63 121 120 131 138 130 175 219 206 151 102 80 177 105 168 131 211 81 326 92 39 130 344 352 320 286 304 117 152 245 143 147 275 267 245 237 295 162 153 140 149 174 183 176 168 169 159 156 154 156
215 230 234 235 242 229 228 240 250 256 278 284 295 300 293 291 291 300 309 314 322 329 344 353 69 54 82 245 266 254 293 273 100 64 161 85 97 328 14 6 76 67 60 109 168 175 111 73 99 114 138 87 181 343 57 345 26 187 269 58 237 12 275 284 358 170 157 190 169 89 201 278 271 277 238 184 162 161 179 187 187 182 180 176 175 161 170 195
205 212 222 231 243 255 240 251 258 250 257 269 290 308 300 287 293 295 303 308 314 324 333 37 62 67 60 266 283 305 268 86 99 242 202 139 124 46 350 11 42 21 48 96 114 156 123 76 70 47 135 284 65 88 356 25 356 26 44 288 327 159 276 298 257 159 168 299 183 107 279 246 269 261 192 184 174 172 184 189 190 188 185 184 176 172 172 187
202 199 208 223 233 245 249 256 262 258 262 272 290 307 302 286 287 297 297 289 293 340 360 71 16 102 104 291 251 340 37 131 222 228 259 126 125 162 180 127 20 9 34 349 49 60 39 91 78 186 125 26 58 92 45 29 328 347 157 271 273 189 262 335 359 221 137 119 284 175 217 320 293 290 184 182 174 187 188 198 196 195 191 185 182 177 171 164
204 197 199 209 226 238 246 250 252 249 262 276 298 293 278 272 284 300 291 277 278 151 92 98 58 107 158 252 65 208 223 232 282 66 115 44 144 155 109 61 46 36 31 38 21 63 348 68 286 35 36 126 138 100 80 357 311 299 10 215 207 198 252 264 300 222 197 143 202 250 230 241 226 317 203 202 189 183 205 207 204 200 196 190 180 178 176 176
202 201 196 200 220 232 233 243 244 245 248 279 288 284 280 279 295 322 336 75 114 111 79 167 163 90 281 52 210 229 185 115 162 161 84 280 124 106 97 108 44 84 56 49 358 91 319 68 33 186 358 51 107 92 135 232 197 212 191 259 290 253 213 239 299 254 129 230 182 219 241 261 265 251 214 211 200 197 214 208 204 201 196 188 187 187 186 182
198 199 197 197 210 222 225 235 237 233 234 273 294 288 276 283 295 162 60 333 113 29 12 218 146 164 209 223 142 71 81 190 106 112 188 139 38 108 69 88 93 115 120 82 259 102 354 62 29 61 196 191 203 177 185 215 156 189 173 190 182 218 249 202 237 264 173 195 223 193 216 241 251 258 223 223 209 207 224 223 226 215 203 194 194 195 190 189
198 195 194 195 205 216 222 234 241 226 231 352 3 338 44 55 26 311 337 9 223 190 177 188 192 322 67 28 147 260 89 55 112 283 226 295 114 82 36 88 33 59 113 179 218 195 119 136 177 191 213 209 196 195 206 192 159 115 104 131 211 217 277 281 266 256 199 125 228 222 227 234 246 242 241 211 198 228 235 229 223 210 201 200 201 198 191 185
197 196 193 190 197 212 215 233 240 208 189 135 330 354 173 178 132 243 213 246 260 285 217 259 202 160 277 150 143 151 126 307 51 200 208 125 104 114 215 76 43 103 261 171 142 262 82 188 230 217 216 195 196 205 222 110 148 182 205 204 271 196 256 244 249 326 235 173 285 241 236 246 246 253 252 176 173 221 218 222 227 215 205 206 199 195 190 174
195 194 193 193 191 203 209 217 211 186 131 133 231 229 282 212 233 228 124 271 253 238 244 225 4 298 357 160 230 159 70 101 182 258 270 140 175 147 258 114 156 192 166 108 44 96 186 207 223 225 200 154 190 189 192 200 225 223 206 256 290 265 251 279 257 264 270 155 257 267 261 250 247 249 258 190 203 220 216 210 213 206 203 204 200 190 170 162
192 192 191 190 190 196 203 202 200 166 112 153 226 231 252 252 327 242 105 142 280 259 213 219 239 228 260 328 226 138 179 169 185 207 199 142 128 212 152 123 189 146 99 150 164 161 238 279 244 228 131 151 211 162 155 178 229 218 248 209 234 232 359 297 291 345 257 175 261 295 283 276 281 258 249 235 211 227 227 221 228 212 206 201 195 185 181 178
193 187 188 186 183 200 212 212 186 146 180 198 238 222 240 42 26 7 108 241 275 283 191 211 201 198 205 166 210 155 178 231 117 199 236 145 162 175 127 181 173 128 185 191 189 185 200 213 276 155 169 173 200 204 158 170 238 234 199 209 236 237 232 200 255 308 323 323 33 305 290 275 227 260 263 249 226 242 257 218 228 233 222 204 183 195 188 178
191 188 183 182 178 191 208 174 198 193 119 201 253 241 256 273 26 2 62 335 337 281 255 347 152 222 200 48 107 159 240 293 221 178 176 155 140 110 221 147 101 210 195 200 206 241 260 261 79 126 166 174 177 213 214 176 233 260 223 199 219 220 234 258 345 16 8 332 318 155 321 268 254 225 236 249 26 227 230 211 227 220 199 177 190 196 181 188
191 188 183 178 174 192 162 193 194 134 166 215 214 225 234 252 287 326 79 92 276 256 37 242 144 253 134 181 125 169 75 238 209 193 158 200 137 147 107 187 157 217 195 155 196 211 212 200 135 155 160 177 182 200 230 165 212 199 265 199 216 209 202 186 224 57 297 261 302 17 203 285 189 219 225 247 233 249 249 220 238 211 203 198 201 188 182 177
190 188 183 179 175 170 169 215 127 127 192 254 241 231 242 191 134 338 163 7 292 187 169 259 141 264 52 187 145 111 190 241 67 81 147 211 182 340 153 199 70 9 148 162 19 263 150 210 190 112 131 165 185 214 239 173 172 237 248 162 174 171 192 221 200 192 242 240 290 49 119 270 291 247 205 188 202 245 254 249 243 227 212 207 202 186 182 179
189 186 183 182 176 182 232 121 143 181 191 216 181 178 144 145 113 180 87 44 270 110 138 228 214 349 86 177 158 162 220 149 113 231 360 278 78 330 172 198 185 177 179 122 222 259 156 191 181 195 188 181 202 203 188 161 160 216 197 135 153 180 194 138 163 216 209 27 289 192 118 297 254 318 331 159 227 255 255 252 248 228 219 216 204 191 183 178
189 185 181 182 183 190 215 158 174 199 208 123 82 119 127 124 123 95 134 199 227 91 286 101 279 75 62 114 163 53 141 353 154 327 313 48 33 138 210 218 179 174 211 181 221 243 305 174 199 180 175 212 219 230 160 158 207 262 134 89 77 73 66 102 98 118 314 41 254 180 176 209 277 176 155 328 222 250 249 248 251 230 211 208 199 181 169 166
190 185 180 177 176 195 215 228 229 213 201 125 92 123 120 128 88 122 96 240 116 245 143 205 156 191 154 155 186 27 109 352 40 100 45 151 225 29 21 156 121 141 224 309 294 206 249 290 179 126 197 198 147 51 157 197 173 125 81 65 19 39 31 15 65 86 6 260 247 174 201 149 278 222 187 149 211 212 239 267 283 227 203 200 190 177 173 173
189 186 180 172 187 190 167 224 209 204 147 123 132 132 125 37 145 159 213 221 22 173 49 160 183 98 152 150 165 275 79 108 127 149 128 61 44 48 89 30 47 61 15 329 283 332 353 356 135 258 107 95 107 82 20 85 129 130 92 121 55 338 16 31 337 39 152 265 220 179 182 181 221 283 268 234 278 247 205 240 266 244 213 199 188 186 181 172
189 187 182 182 176 141 190 216 168 170 148 148 149 157 156 171 307 201 219 65 279 203 161 183 271 156 171 172 157 177 171 81 184 165 163 180 168 174 200 184 155 158 261 212 253 27 274 205 252 325 204 131 116 96 1 30 44 87 96 85 131 255 35 316 28 251 201 239 317 220 170 315 239 251 255 264 272 266 218 222 243 241 222 203 189 183 177 170
188 188 186 190 164 198 207 100 152 148 138 152 145 230 188 166 204 201 233 151 246 126 245 103 166 155 170 156 208 164 42 174 178 186 136 75 156 221 252 186 218 143 207 209 200 119 268 291 317 236 360 236 141 163 163 120 212 123 145 153 132 183 220 259 243 255 298 301 271 146 47 249 331 286 236 247 250 259 273 246 239 237 222 198 190 174 168 173
190 182 187 191 191 193 173 166 149 148 152 156 147 177 276 223 213 193 211 207 209 350 95 122 122 140 161 174 198 153 180 256 155 201 171 165 165 201 232 245 186 233 92 107 174 182 236 313 239 143 235 176 183 192 187 163 161 198 124 153 186 156 155 223 197 209 222 226 302 279 119 234 131 244 249 239 281 310 260 262 255 249 239 202 171 158 155 163
187 188 192 192 197 191 177 172 157 157 159 162 167 184 191 212 222 211 215 205 103 77 31 133 138 139 220 317 306 200 133 199 184 125 183 148 201 193 186 206 214 137 143 137 245 83 213 232 267 204 319 157 186 210 106 88 81 239 166 56 100 214 146 218 195 171 260 317 330 212 207 190 192 245 291 245 298 284 296 300 317 287 128 137 148 165 176 178
183 191 187 199 195 189 177 172 164 164 171 170 183 196 202 187 208 210 237 129 166 141 142 72 74 145 203 200 335 196 252 115 197 130 228 214 234 197 209 206 190 185 164 191 161 176 57 265 280 8 39 173 190 130 189 146 195 208 103 195 210 115 155 253 9 111 127 37 255 145 273 276 304 282 260 262 240 266 301 268 270 220 180 163 174 179 179 179
199 181 202 194 200 176 174 173 165 170 182 192 190 206 196 218 216 182 237 188 180 128 137 151 220 172 182 205 197 187 217 75 184 146 224 138 286 210 191 228 183 198 213 137 275 195 155 234 297 104 208 309 328 187 106 19 142 100 180 223 88 94 111 150 233 335 159 242 272 156 232 273 86 275 349 26 249 262 265 251 239 237 196 192 193 186 182 182
198 198 198 202 186 168 174 174 168 170 189 206 210 205 196 219 213 209 164 114 105 155 160 198 244 154 210 178 207 176 213 174 190 176 205 181 241 181 181 189 205 197 206 213 186 250 130 298 254 342 81 312 344 93 20 349 23 161 194 202 136 239 233 287 99 249 195 238 279 255 224 249 184 246 27 275 229 252 247 241 234 224 210 211 194 188 175 154
219 198 232 211 160 160 173 170 181 173 193 201 207 208 212 226 209 201 168 159 164 155 196 207 197 213 169 188 172 178 167 190 165 193 145 224 218 192 185 170 212 203 199 174 203 214 45 182 299 345 120 307 22 131 193 202 334 38 76 124 86 98 163 151 197 177 113 242 87 284 85 254 180 225 195 241 227 239 251 227 232 221 208 200 193 181 177 178
199 228 247 159 151 165 168 175 186 197 198 203 189 217 203 221 204 183 197 180 191 171 214 208 211 192 190 203 163 167 218 192 164 195 195 204 199 251 183 194 168 182 187 185 202 131 211 139 259 259 313 108 185 189 198 174 175 142 130 190 162 61 276 107 322 165 177 188 199 288 291 265 251 221 186 221 224 230 226 229 235 226 208 204 194 184 185 187
208 244 293 141 157 160 162 187 216 200 204 213 216 219 223 225 198 201 207 192 210 333 189 214 192 210 177 153 231 183 173 180 195 185 194 225 187 227 204 182 156 168 148 181 215 183 163 172 201 124 164 223 243 247 226 203 202 185 175 190 183 149 147 171 245 61 151 156 237 147 263 218 266 175 193 229 240 253 253 235 255 240 205 198 192 190 187 187
196 235 198 175 164 160 166 194 211 197 208 199 203 199 221 166 36 194 202 204 206 217 11 158 224 206 179 200 180 189 155 187 190 191 219 201 210 213 232 183 176 147 146 178 197 198 160 133 103 192 208 198 215 245 242 243 187 193 180 215 183 190 172 175 219 220 61 242 114 163 299 275 220 184 205 236 266 265 276 239 253 241 200 196 197 189 193 197
202 233 61 148 175 168 176 201 191 200 203 217 218 223 11 202 206 188 190 189 211 181 190 203 197 191 222 187 176 180 174 195 177 204 195 214 226 201 234 176 144 158 148 95 44 302 109 117 171 255 312 311 307 281 30 82 118 313 265 149 157 204 196 203 197 173 188 167 180 282 259 264 309 189 233 245 255 263 257 226 246 235 188 186 183 184 187 185
196 218 199 285 177 182 221 201 197 209 205 202 201 210 217 228 199 178 203 196 200 156 196 185 331 238 212 153 140 188 180 208 217 202 219 202 228 145 152 175 162 172 162 199 160 193 140 236 156 127 347 338 328 319 262 333 104 207 196 207 209 197 197 179 94 76 196 212 174 171 244 231 264 333 287 310 316 324 284 273 213 229 196 184 181 181 184 181
97 13 181 264 221 230 208 199 209 198 202 205 187 202 207 222 216 213 194 201 203 201 176 230 196 154 201 152 186 171 191 201 191 213 204 193 210 71 344 160 214 183 204 187 171 163 172 159 154 189 212 215 214 201 199 197 205 185 221 170 185 199 190 148 228 188 227 213 168 216 249 222 173 307 296 306 341 302 277 273 283 219 194 186 185 180 179 179
162 228 170 233 215 226 262 320 291 216 209 204 204 207 204 211 216 217 199 220 210 214 211 83 110 135 206 150 176 191 206 221 210 177 190 205 198 309 204 334 187 211 290 166 144 153 162 167 186 197 209 224 233 221 66 87 69 191 210 180 204 204 199 200 218 186 219 125 192 224 232 265 271 242 283 274 274 252 274 282 235 242 229 204 185 181 182 182
141 213 152 206 157 231 237 237 251 205 210 187 209 178 206 210 204 204 186 216 209 211 217 212 156 172 195 205 210 214 209 200 30 148 198 188 233 211 44 145 156 26 135 135 166 106 96 184 216 212 217 230 161 171 196 163 185 207 197 204 201 195 193 193 201 224 130 114 248 233 160 246 259 244 242 234 260 253 254 253 240 226 209 187 179 164 157 166
196 217 169 191 160 193 208 233 209 235 256 192 230 174 213 207 204 197 181 225 204 203 208 205 215 217 196 197 190 212 180 205 181 212 156 180 107 279 91 358 136 315 357 149 172 144 162 205 216 191 227 222 128 162 172 178 192 196 203 202 198 200 189 196 217 220 150 208 235 223 174 230 248 239 244 218 215 221 222 226 207 175 153 152 160 173 179 181
116 57 183 173 186 218 205 61 165 202 236 228 216 215 207 211 212 203 189 189 206 202 201 215 218 219 214 203 198 206 190 188 230 217 184 170 173 128 111 351 277 254 63 145 182 167 128 229 202 188 223 215 191 158 186 167 186 196 214 212 202 192 197 202 216 217 202 224 239 241 222 238 244 238 216 227 223 220 182 124 131 146 166 162 167 179 183 183
192 158 221 145 181 166 165 193 178 189 237 213 221 206 200 208 213 211 214 176 190 210 195 216 224 218 211 204 201 211 208 213 204 195 188 161 199 201 196 185 147 133 191 181 167 252 156 215 138 148 215 235 210 173 192 181 168 218 231 217 210 201 202 205 213 222 215 243 242 238 256 260 239 173 223 46 101 139 124 144 165 167 162 172 178 187 187 186
322 328 239 143 196 193 166 178 182 188 199 189 201 211 201 214 224 210 210 200 198 193 191 210 220 213 208 210 213 222 220 214 215 201 187 172 189 199 174 226 155 158 166 150 179 207 172 241 69 141 199 237 173 188 198 187 193 235 248 226 191 177 201 212 215 215 198 219 231 239 248 256 239 64 76 159 160 161 180 179 165 182 183 174 183 186 187 191
39 243 345 219 209 177 184 165 182 141 214 190 186 190 186 222 243 229 245 247 234 225 208 218 220 202 202 202 215 222 225 220 214 174 185 200 207 55 66 141 153 153 165 176 101 163 189 152 161 179 198 232 188 175 180 133 118 304 248 226 175 196 206 206 220 216 211 213 213 222 235 241 230 163 149 223 199 201 183 179 174 195 192 183 183 185 191 193